Location: Unspecified
(52.1384°N, 8.6525°W)
Time: 18:16:32
(UTC+00:00)

N. Korean satellite - Pass Details

Date: 01 November 2020
Orbit: 453 x 503 km, 97.2° (Epoch: 04 December)

Event Time Altitude Azimuth Distance (km) Brightness Sun altitude
Rises 06:18:38 0° 13° (NNE) 2,484 10.2 -11.4°
Reaches altitude 10° 06:20:41 10° 13° (NNE) 1,603 9.2 -11.1°
Maximum altitude 06:24:07 89° 100° (E) 462 6.4 -10.6°
Drops below altitude 10° 06:27:32 10° 194° (SSW) 1,592 9.1 -10.1°
Sets 06:29:34 0° 195° (SSW) 2,464 10.1 -9.8°
